Location: Unspecified
(49.2170°N, 0.0000°E)
Time: 21:09:52
(UTC+00:00)

Vanguard 2 Rocket - Visible Passes

Search period start: 21 January 2021 00:00
Search period end: 31 January 2021 00:00
Orbit: 554 x 3325 km, 32.9° (Epoch: 21 January)

Date Brightness Start Highest point End Pass type
(mag) Time Alt. Az. Time Alt. Az. Time Alt. Az.
21 Jan 8.8 18:46:06 10° SW 18:50:43 17° SSW 18:54:13 10° SSE visible
22 Jan 9.0 17:44:52 10° SW 17:51:25 22° S 17:56:01 10° SE visible
22 Jan 9.1 20:02:44 10° SSW 20:03:08 10° SSW 20:03:31 10° SSW visible
23 Jan 8.9 18:59:41 10° WSW 19:04:05 16° SSW 19:07:31 10° SSE visible
24 Jan 9.1 17:58:02 10° WSW 18:04:52 22° SSW 18:09:37 10° SSE visible
25 Jan 9.2 19:13:45 10° WSW 19:17:19 14° SSW 19:20:14 10° S visible
26 Jan 9.2 18:11:29 10° WSW 18:18:11 21° SSW 18:22:55 10° SSE visible
27 Jan 9.4 17:09:30 10° WSW 17:18:46 27° SSW 17:24:50 10° SE visible
27 Jan 9.6 19:29:19 10° SW 19:30:22 10° SW 19:31:21 10° SSW visible
28 Jan 9.4 18:25:18 10° WSW 18:31:19 18° SSW 18:35:47 10° S visible
29 Jan 9.5 17:22:52 10° WSW 17:32:00 25° SSW 17:38:06 10° SSE visible
30 Jan 9.8 18:39:43 10° WSW 18:44:16 14° SW 18:47:55 10° S visible
